Tracking 18980 objects as of 22-Feb-2018
HD Live streaming from Space Station
objects crossing your sky now

ANIK A3 (TELESAT-3)

Track ANIK A3 (TELESAT-3) now!
ANIK A3 (TELESAT-3) is classified as:


NORAD ID: 7790
Int'l Code: 1975-038A
Perigee: 35,836.0 km
Apogee: 35,884.2 km
Inclination: 13.6 °
Period: 1,439.5 minutes
Semi major axis: 42231 km
RCS: 3.6797 m2 (large)
Launch date: May 7, 1975
Source: Canada (CA)
Launch site: AIR FORCE EASTERN TEST RANGE (AFETR)
aabbcc
Your satellite tracking list
Your tracking list is empty




NASA's NSSDC Master Catalog

Two Line Element Set (TLE):
1  7790U 75038A   18051.33803175 -.00000099 +00000-0 +00000-0 0  9990
2  7790 013.5615 332.1081 0005706 326.9569 232.3458 01.00035540099544
Source of the keplerian elements: AFSPC